Jackpot Winner Texas Poker

Kini Telah hadir Jackpot SUPER ROYAL FLUSH

Kini Telah hadir Jackpot 2000 (khusus table VIP keatas).

Ikutilah global jackpot yang tersedia di system kami, dengan system jackpot terbaru dan pertama di indonesia, anda dapat membeli jackpot dengan harga 100 rupiah saja dan menangkan hadiahnya hingga puluhan juta rupiah.

Jackpot bukanlah suatu keharusan untuk dibeli, namun kami memberikan suatu fitur tambahan untuk member tercinta dari www.nagapoker.com.

Terdapat tiga pilihan harga jackpot yang bisa anda beli yaitu :100,500,1000 dan 2000(khusus table VIP Keatas) rupiah.

Hadiah dari Multi jackpot system www.nagapoker.com

  1. full house x 10 harga jackpot yang anda beli.
      (contoH:anda membeli 1000 maka:1000 X10 = 10.000)
  2. four of kind x 250 harga jackpot yang anda beli
      (contoH:anda membeli 1000 maka:1000 X250 = 250.000)
  3. Straight flush x 1200
      (contoH:anda membeli 1000 maka:1000 X1200 = 1.200.000)
  4. Royal flush x 10000 harga jackpot yang anda beli
      (contoH:anda membeli 1000 maka:1000 X10000 = 10.000.000)
  5. SUPER ROYAL FLUSH x 30000 harga jackpot yang anda beli
      (contoH:anda membeli 1000 maka:1000 X30000 = 30.000.000)

Kondisi kartu

  1. full house adalah kondisi kartu dimana kartu anda dan kartu tengah dengan total 7 kartu bisa mendapatkan nilai 5 kartu dengan kombinasi 1 tris(three of kind) dan 1 pair, contoh 3 kartu 10 dan 2 kartu 5
  2. Four of kind adalah kondisi kartu dimana kartu anda dan kartu tengah dengan total 7 kartu bisa mendapatkan nilai 5 kartu dengan kombinasi 4 kartu yang sama jumlah dan 1 kartu apapun juga contoh anda mendapatkan 4 buah kartu angka 3 dan 1 kartu apapun.
  3. Straight flush adalah kondisi kartu dimana kartu anda dan kartu tengah dengan total 7 kartu bisa mendapatkan nilai 5 kartu dengan kombinasi seri / staright dengan kembang yang sama contoh : urutan kartu dari angka 5, 6, 7, 8 , 9 10 dengan kembang yg sama misalnya as hati
  4. Royal flush adalah kondisi kartu dimana kartu anda dan kartu tengah dengan total 7 kartu bisa mendapatkan nilai 5 kartu dengan kombinasi seri / staright dengan kembang yang sama tetapi kartu tersebut haruslah dimulai dari 10. contoh 10, Queen, Jack, King dan aces dengan kembang yang sama
  5. Super Royal flush adalah kondisi kartu dimana Kedua kartu anda digabung dengan 3 kartu pertama meja haruslah royal flush. contoh kartu anda10,Queen dan 3 kartu pertama meja adalah Jack, King dan aces dengan kembang yang sama

Demikian adalah penjelasan dari Multi Jackpot www.nagapoker.com terima kasih dan selamat bermain salam hoki dari kami


Jackpot Winner

TOP SUPER ROYAL FLUSH
No.TanggalNamaPriceWin
124/11 20:20DEVLONARISuper Royal flush3,000,000
224/11 15:45BALAPMOBILSuper Royal flush15,000,000
324/11 14:22RFUWSuper Royal flush60,000,000
424/11 11:02ARCIL420Super Royal flush3,000,000
524/11 06:38WID_RAU99Super Royal flush3,000,000
TOP ROYAL FLUSH
No.TanggalNamaPriceWin
125/11 08:21SWAMPLOKRoyal flush2,000,000
225/11 08:20M3RAPI39Royal flush1,000,000
325/11 07:46AGAS80Royal flush20,000,000
425/11 07:43MYJASMINERoyal flush2,000,000
525/11 07:23BLOROK234Royal flush1,000,000
TOP STRAIGHT FLUSH
No.TanggalNamaPriceWin
125/11 08:37YYTRT93Straight Flush600,000
225/11 08:35HILFCKStraight Flush2,400,000
325/11 08:34MUHAMMAZUStraight Flush600,000
425/11 08:27ZEERREEFFStraight Flush240,000
525/11 08:25CILOTT94Straight Flush60,000
LATEST JACKPOT
No.TanggalNamaPriceWin
125/11 08:40POTENG11Full House1,000
225/11 08:40DARAI23Full House10,000
325/11 08:40AA56789Full House2,000
425/11 08:40KUR4P0P0Four Of A Kind50,000
525/11 08:40NOODLEFour Of A Kind50,000
625/11 08:40MR_S4TRI4Full House20,000
725/11 08:40ANDRESILA1Full House1,000
825/11 08:40AADA8BACFull House2,000
925/11 08:40EIMON11Four Of A Kind50,000
1025/11 08:40PARAMEX08Four Of A Kind25,000
1125/11 08:40HYDROCRBONFull House5,000
1225/11 08:40UCIW115Full House5,000
1325/11 08:40BD248734Full House2,000
1425/11 08:40MARTHOS666Full House1,000
1525/11 08:40HARRY_2017Full House2,000
1625/11 08:40ADITA23Full House5,000
1725/11 08:40FARHAN789Full House2,000
1825/11 08:40IW3JQ23811Full House10,000
1925/11 08:40PEPPVEFull House10,000
2025/11 08:40CKINK21Full House1,000
2125/11 08:40LAPER44Full House5,000
2225/11 08:40MARTINI76Full House10,000
2325/11 08:40SOLUSION77Full House2,000
2425/11 08:40AAPHAJAA45Full House5,000
2525/11 08:39TIKTIKFull House20,000
2625/11 08:39EVFANASIFull House1,000
2725/11 08:39PAYAH889Full House1,000
2825/11 08:39B4B14THOFull House10,000
2925/11 08:39BELQFull House10,000
3025/11 08:39RYRY16Full House10,000
3125/11 08:39E149E9BDFull House5,000
3225/11 08:39D4N1SHFull House5,000
3325/11 08:39KHARIZMIFull House2,000
3425/11 08:39MACAN188Full House10,000
3525/11 08:39ERIKMOEFull House10,000
3625/11 08:39AADA8BACFull House2,000
3725/11 08:39DENGGEL99Full House10,000
3825/11 08:39JRPHFull House5,000
3925/11 08:39PJY137TQEGFour Of A Kind125,000
4025/11 08:39BEJONE11Full House5,000
4125/11 08:39NIPESLIPFull House5,000
4225/11 08:39AJET79Full House2,000
4325/11 08:39BD248734Full House2,000
4425/11 08:39ME6AD3THFull House1,000
4525/11 08:39NAPI323Full House500
4625/11 08:39SAMSUDIN99Full House5,000
4725/11 08:39DONANUBIZFull House10,000
4825/11 08:39HARIKA75Full House5,000
4925/11 08:39RISKI6699Full House10,000
5025/11 08:39HYDROCRBONFull House5,000
Dewa.FM